Location: Presov
(49.0000°N, 21.2500°E)
Time: 10:15:09
(UTC+02:00)

A-11 Canister half - Pass Details

Date: 27 April 2021
Orbit: 1526 x 1683 km, 47.3° (Epoch: 11 May)

Event Time Altitude Azimuth Distance (km) Brightness Sun altitude
Rises 21:06:07 0° 290° (WNW) 4,935 13.2 -12.2°
Reaches altitude 10° 21:09:59 10° 279° (W) 3,948 12.1 -12.7°
Maximum altitude 21:17:41 26° 228° (SW) 2,886 10.5 -13.6°
Drops below altitude 10° 21:25:21 10° 178° (S) 3,905 10.7 -14.6°
Enters shadow 21:26:43 - 173° (S) 4,236 10.9 -14.7°
